Location: Newark
(36.1358°N, 115.1208°W)
Time: 14:45:06
(UTC+00:00)

Vanguard 1 Rocket - Pass Details

Date: 26 February 2020
Orbit: 650 x 4227 km, 34.3° (Epoch: 30 March)

Event Time Altitude Azimuth Distance (km) Brightness Sun altitude
Rises 15:05:46 0° 266° (W) 3,000 9.5 9.1°
Reaches altitude 10° 15:09:20 10° 235° (SW) 2,045 8.9 9.8°
Maximum altitude 15:11:15 13° 209° (SSW) 1,923 9.0 10.1°
Drops below altitude 10° 15:13:17 10° 183° (S) 2,188 9.6 10.5°
Sets 15:17:28 0° 154° (SSE) 3,459 11.1 11.3°
